Location: Newark
(44.5208°N, 2.4294°E)
Time: 22:57:15
(UTC+00:00)

N. Korean satellite - Pass Details

Date: 22 October 2019
Orbit: 456 x 506 km, 97.2° (Epoch: 14 November)

Event Time Altitude Azimuth Distance (km) Brightness Sun altitude
Rises 17:40:57 0° 198° (SSW) 2,463 10.5 -8.9°
Reaches altitude 10° 17:43:19 10° 215° (SW) 1,597 9.8 -9.3°
Maximum altitude 17:45:59 21° 266° (W) 1,091 9.6 -9.8°
Drops below altitude 10° 17:48:41 10° 317° (NW) 1,620 9.8 -10.2°
Sets 17:51:07 0° 334° (NNW) 2,509 10.5 -10.7°
